This is the latest recevied weather packets stored in our database for station/object KC0CAU. If no packets are shown the sender has not sent any weather packets the latest 10 day(s).
| Time | Temp. | Humidity | Pressure | Rain* | Wind** | Luminosity | Snow |
|---|---|---|---|---|---|---|---|
| 1778004954 | 5.56° C | 45% | 1017.2 hPa | 0 mm | - | - | - |
| 1778004064 | 5.56° C | 48% | 1017.2 hPa | 0 mm | - | - | - |
| 1778003162 | 5.56° C | 47% | 1017.1 hPa | 0 mm | - | - | - |
| 1778002252 | 5.56° C | 47% | 1017.1 hPa | 0 mm | - | - | - |
| 1778001352 | 5.56° C | 47% | 1017 hPa | 0 mm | - | - | - |
| 1778000447 | 5° C | 49% | 1017.3 hPa | 0 mm | - | - | - |
| 1777999548 | 4.44° C | 51% | 1017.2 hPa | 0 mm | - | - | - |
| 1777998643 | 4.44° C | 50% | 1017.1 hPa | 0 mm | - | - | - |
| 1777997750 | 4.44° C | 50% | 1017 hPa | 0 mm | - | - | - |
| 1777996841 | 3.89° C | 54% | 1016.9 hPa | 0 mm | - | - | - |
| 1777995959 | 3.89° C | 52% | 1017 hPa | 0 mm | - | - | - |
| 1777995038 | 3.89° C | 57% | 1017.1 hPa | 0 mm | - | - | - |
| 1777994137 | 3.89° C | 60% | 1017.1 hPa | 0 mm | - | - | - |
| 1777993295 | 3.89° C | 60% | 1017.1 hPa | 0 mm | - | - | - |
| 1777992336 | 3.33° C | 60% | 1017.1 hPa | 0 mm | - | - | - |
| 1777991435 | 3.89° C | 60% | 1016.8 hPa | 0 mm | - | - | - |
| 1777990529 | 3.89° C | 61% | 1016.5 hPa | 0 mm | - | - | - |
| 1777989627 | 3.33° C | 61% | 1016.3 hPa | 0 mm | - | - | - |
| 1777988726 | 3.33° C | 62% | 1016.2 hPa | 0 mm | - | - | - |
| 1777987823 | 3.33° C | 65% | 1016.2 hPa | 0 mm | - | - | - |
| 1777986919 | 2.78° C | 67% | 1015.8 hPa | 0 mm | - | - | - |
| 1777986017 | 2.78° C | 69% | 1015.8 hPa | 0 mm | - | - | - |
| 1777985117 | 2.22° C | 70% | 1015.7 hPa | 0 mm | - | - | - |
| 1777984227 | 2.22° C | 70% | 1015.5 hPa | 0 mm | - | - | - |
| 1777983313 | 2.22° C | 70% | 1015.3 hPa | 0 mm | - | - | - |
* Rain latest hour (hover to see other rain measurements)
** Current wind speed in m/s (hover to see current wind gust speed)